Flag for Israel Weather past 2 weeks in Eilat, Israel

Now
90 °F

Sunny.


Feels Like: 86 °F
Forecast: 75 / 89 °F
Wind: 13 mph from Northeast

Location: Eilat

Current Time: Mar 27, 2015 at 11:30:16 AM

Latest Report: Mar 27, 2015 at 10:50 AM


Visibility: 10 mi

Pressure: 29.92 "Hg

Humidity: 14%

Dew point: 34 °F

Location of EilatLocation

Historic Weather in Eilat — Graph

°F

Eilat temperature yesterday

Maximum temperature yesterday: 91 °F (at 3:50 PM)
Minimum temperature yesterday: 68 °F (at 5:50 AM)
Average temperature yesterday: 81 °F

Past Weeks' High & Low Weather Summary

 TemperatureHumidityPressure
High91 °F (Mar 26, 3:50 PM)73% (Mar 12, 9:50 AM)30.21 "Hg (Mar 12, 9:50 AM)
Low57 °F (Mar 13, 5:50 AM)11% (Mar 24, 12:50 PM)29.86 "Hg (Mar 18, 2:50 PM)
Average73 °F33%30.02 "Hg
* Reported Mar 12 8:50 AM — Mar 27 9:50 AM, Eilat, Weather by CustomWeather, © 2015

Note: Actual official high and low records may vary slightly from our data, if they occured in-between our weather recording intervals... More about our weather records

Advertising

Eilat weather history for previous 24 hours

 ConditionsComfort  
Time TempWeatherWind HumidityBarometerVisibility
9:50 AM
Fri, Mar 27
86 °FSunny.13 mph18%29.92 "Hg10 mi
8:50 AM77 °FSunny.9 mph28%29.92 "Hg10 mi
7:50 AM70 °FSunny.9 mph35%29.92 "Hg10 mi
6:50 AM72 °FClear.12 mph33%29.92 "Hg10 mi
5:50 AM72 °FClear.13 mph31%29.92 "Hg10 mi
9:50 PM
Thu, Mar 26
77 °FClear.14 mph18%29.98 "Hg10 mi
8:50 PM81 °FClear.12 mph15%29.98 "Hg10 mi
7:50 PM82 °FClear.15 mph16%29.98 "Hg10 mi
6:50 PM82 °FClear.15 mph15%29.95 "Hg10 mi
5:50 PM86 °FSunny.18 mph13%29.95 "Hg10 mi
4:50 PM88 °FSunny.20 mph13%29.95 "Hg10 mi
3:50 PM91 °FSunny.18 mph13%29.92 "Hg10 mi
2:50 PM90 °FSunny.18 mph16%29.92 "Hg10 mi
1:50 PM90 °FSunny.20 mph17%29.95 "Hg10 mi
12:50 PM88 °FSunny.21 mph19%29.98 "Hg10 mi
11:50 AM84 °FSunny.21 mph23%30.01 "Hg10 mi
Weather by CustomWeather, © 2015

See weather overviewHow to use our weather pages